{"data":{"norad_id":68683,"intl_designator":"2026-077X","name":"STARLINK-37304","alt_names":[],"object_type":"PAYLOAD","status":"ACTIVE","operator":null,"country":"US","launch_date":"2026-04-11","launch_site_code":"AFWTR","launch_vehicle":null,"mission":null,"orbit_class":"UNKNOWN","rcs_meters":null,"size_class":null,"mass_kg":null,"dimensions":null,"purposes":["comms"],"wikipedia_slug":null,"has_3d_model":false,"image_url":null,"decayed_at":null,"tle_current":{"epoch":"2026-05-25T02:26:22.303392Z","epoch_age_seconds":62320,"freshness":"FRESH","line1":"1 68683U 26077X   26145.10164703  .00024446  00000+0  75655-3 0  9993","line2":"2 68683  97.2865  16.7567 0001174  93.1510 266.9867 15.33467567  6876","mean_motion":15.33467567,"eccentricity":0.0001174,"inclination_deg":97.2865,"raan_deg":16.7567,"arg_perigee_deg":93.151,"mean_anomaly_deg":266.9867,"bstar":0.00075655,"rev_number":687,"period_min":93.904822703042,"perigee_km":464.67259161686,"apogee_km":466.27947195672,"semimajor_km":6843.6130317868,"source":"CELESTRAK","updated_at":"2026-05-25T13:38:21.996421Z"}}}